Date String (YYYY-MM-DD hh:mm:ss) UTC,Instrument flags,Ambient pressure (hPa),Sample flow (lpm),Bypass flow (lpm),Sample temperature (°C),Ambient temperature (°C),ASC tube jacket temperature (°C),LED temperature (°C),Box temperature (°C),Sample RH (%),Span deviation,Mass concentration (μg/m³),Mass concentration (μg/m³),Mass concentration (μg/m³)
DateTimeUTC,F1_M11,P_M11,Q1_M11,Q2_M11,T1_M11,T2_M11,T3_M11,T4_M11,T5_M11,U1_M11,ZSPAN_M11,X0_M11,X2_M11,X1_M11
2022-09-08 08:00:00,,0828.2,5.00,0.00,29.9,27.8,00.0,38.7,31.6,15.0,0002.9,0793.02,0036.53,0017.54
2022-09-08 08:01:00,,0828.3,5.00,0.00,29.9,28.0,00.0,38.7,31.6,15.0,0002.7,0793.87,0036.65,0017.62
2022-09-08 08:02:00,,0828.2,5.01,0.00,29.9,28.2,00.0,38.7,31.7,15.0,0002.7,0801.17,0036.91,0017.67
2022-09-08 08:03:00,,0828.2,5.01,0.00,29.9,28.4,00.0,38.7,31.7,15.0,0002.9,0819.10,0037.64,0017.71
2022-09-08 08:04:00,,0828.2,5.01,0.00,29.9,28.5,00.0,38.7,31.7,15.0,0002.7,0826.52,0037.91,0017.72
2022-09-08 08:05:00,,0828.2,4.98,0.00,29.9,28.6,00.0,38.7,31.7,15.0,0002.5,0764.13,0036.07,0017.65
2022-09-08 08:06:00,,0828.2,5.02,0.00,29.9,28.7,00.0,38.7,31.8,15.0,0002.4,0624.45,0032.14,0017.45
2022-09-08 08:07:00,,0828.2,4.99,0.00,30.0,28.8,00.0,38.7,31.8,14.9,0002.5,0325.35,0025.58,0017.20
2022-09-08 08:08:00,,0828.2,5.01,0.00,30.0,28.9,00.0,38.7,31.9,14.9,0002.4,0108.10,0020.46,0016.96
2022-09-08 08:09:00,,0828.1,4.99,0.00,30.0,28.9,00.0,38.7,31.9,14.9,0002.8,0095.93,0020.46,0016.97
2022-09-08 08:10:00,,0828.1,5.02,0.00,30.0,29.0,00.0,38.7,31.9,14.9,0002.7,0093.63,0020.50,0017.01
2022-09-08 08:11:00,,0828.3,4.99,0.00,30.1,29.0,00.0,38.8,32.0,14.8,0002.2,0082.40,0020.25,0017.02
2022-09-08 08:12:00,,0828.1,5.01,0.00,30.1,29.1,00.0,38.8,32.0,14.8,0002.3,0082.09,0020.28,0017.02
2022-09-08 08:13:00,,0828.2,4.99,0.00,30.1,29.1,00.0,38.8,32.0,14.8,0002.1,0074.95,0020.11,0017.01
2022-09-08 08:14:00,,0828.3,5.00,0.00,30.2,29.2,00.0,38.8,32.0,14.7,0002.0,0058.47,0019.44,0016.97
2022-09-08 08:15:00,,0828.2,4.99,0.00,30.2,29.2,00.0,38.9,32.1,14.6,0002.1,0054.98,0019.24,0016.95
2022-09-08 08:16:00,,0828.1,4.99,0.00,30.2,28.1,00.0,38.9,32.0,14.7,0002.1,0055.12,0019.24,0016.92
2022-09-08 08:17:00,,0828.1,5.00,0.00,30.1,27.1,00.0,38.8,31.9,14.6,0002.3,0055.41,0019.23,0016.91
2022-09-08 08:18:00,,0828.1,5.01,0.00,30.1,27.0,00.0,38.8,31.8,14.3,0002.3,0055.23,0019.20,0016.88
2022-09-08 08:19:00,,0828.1,5.00,0.00,30.0,27.2,00.0,38.8,31.7,14.3,0002.2,0054.92,0019.13,0016.88
2022-09-08 08:20:00,,0828.1,4.99,0.00,30.0,27.6,00.0,38.7,31.6,14.4,0001.8,0035.51,0018.41,0016.81
2022-09-08 08:21:00,,0828.1,5.02,0.00,29.9,27.9,00.0,38.7,31.7,14.4,0001.6,0035.01,0018.28,0016.75
2022-09-08 08:22:00,,0828.1,5.00,0.00,29.9,28.1,00.0,38.7,31.7,14.4,0001.5,0034.07,0018.17,0016.67
2022-09-08 08:23:00,,0828.1,4.99,0.00,29.9,28.3,00.0,38.7,31.7,14.5,0001.2,0033.33,0018.11,0016.64
2022-09-08 08:24:00,,0828.0,5.01,0.00,30.0,28.4,00.0,38.7,31.7,14.5,0000.9,0032.11,0018.04,0016.64
2022-09-08 08:25:00,,0828.0,5.01,0.00,30.0,28.6,00.0,38.7,31.8,14.5,0000.9,0030.30,0018.00,0016.66
2022-09-08 08:26:00,,0828.0,5.00,0.00,30.0,28.7,00.0,38.7,31.8,14.4,0000.6,0027.27,0017.89,0016.66
2022-09-08 08:27:00,,0828.1,4.99,0.00,30.0,28.8,00.0,38.7,31.8,14.3,0000.4,0027.85,0017.93,0016.70
2022-09-08 08:28:00,,0828.1,5.01,0.00,30.0,28.8,00.0,38.8,31.9,14.3,0000.3,0027.61,0017.99,0016.71
2022-09-08 08:29:00,,0828.0,4.99,0.00,30.0,28.9,00.0,38.8,31.9,14.2,0000.4,0027.39,0018.01,0016.72
2022-09-08 08:30:00,,0828.1,5.01,0.00,30.1,29.0,00.0,38.8,31.9,14.3,0000.6,0026.76,0018.01,0016.74
2022-09-08 08:31:00,,0828.0,5.00,0.00,30.1,29.0,00.0,38.8,32.0,14.2,0000.9,0026.56,0018.02,0016.76
2022-09-08 08:32:00,,0828.0,5.00,0.00,30.1,29.1,00.0,38.8,32.0,14.2,0001.1,0026.68,0018.06,0016.81
2022-09-08 08:33:00,,0828.0,5.00,0.00,30.1,29.1,00.0,38.8,32.0,14.0,0001.6,0026.88,0018.11,0016.89
2022-09-08 08:34:00,,0828.0,5.00,0.00,30.2,29.2,00.0,38.9,32.0,13.9,0001.9,0027.15,0018.14,0016.95
2022-09-08 08:35:00,,0828.0,4.99,0.00,30.2,29.2,00.0,38.9,32.1,13.8,0002.2,0027.17,0018.16,0016.98
2022-09-08 08:36:00,,0828.0,5.01,0.00,30.2,29.2,00.0,38.9,32.1,13.9,0002.3,0026.59,0018.17,0017.00
2022-09-08 08:37:00,,0827.9,4.99,0.00,30.3,29.3,00.0,38.9,32.1,13.9,0002.3,0026.45,0018.25,0017.05
2022-09-08 08:38:00,,0827.9,5.00,0.00,30.3,28.8,00.0,39.0,32.1,13.8,0002.5,0025.27,0018.26,0017.10
2022-09-08 08:39:00,,0828.0,5.01,0.00,30.2,27.5,00.0,38.9,32.0,13.7,0002.5,0025.35,0018.33,0017.14
2022-09-08 08:40:00,,0828.0,4.99,0.00,30.2,27.1,00.0,38.9,31.9,13.7,0002.6,0025.08,0018.35,0017.21
2022-09-08 08:41:00,,0827.9,5.00,0.00,30.1,27.3,00.0,38.9,31.8,13.7,0002.7,0024.98,0018.35,0017.26
2022-09-08 08:42:00,,0827.8,5.00,0.00,30.0,27.6,00.0,38.8,31.7,13.9,0002.6,0025.21,0018.37,0017.30
2022-09-08 08:43:00,,0827.9,4.99,0.00,30.0,27.9,00.0,38.8,31.7,13.7,0002.8,0024.98,0018.45,0017.35
2022-09-08 08:44:00,,0827.9,5.02,0.00,30.0,28.1,00.0,38.8,31.7,13.6,0002.6,0024.95,0018.51,0017.39
2022-09-08 08:45:00,,0827.9,5.00,0.00,30.0,28.3,00.0,38.8,31.7,13.6,0002.4,0025.21,0018.53,0017.42
2022-09-08 08:46:00,,0827.9,5.00,0.00,30.0,28.4,00.0,38.8,31.8,13.6,0002.2,0025.79,0018.56,0017.46
2022-09-08 08:47:00,,0827.9,5.00,0.00,30.0,28.6,00.0,38.8,31.8,13.5,0002.0,0026.46,0018.62,0017.49
2022-09-08 08:48:00,,0827.9,5.00,0.00,30.0,28.7,00.0,38.8,31.9,13.5,0001.9,0026.54,0018.55,0017.50
2022-09-08 08:49:00,,0827.9,4.99,0.00,30.0,28.8,00.0,38.8,31.9,13.5,0002.0,0026.45,0018.51,0017.50
2022-09-08 08:50:00,,0827.9,5.01,0.00,30.1,28.9,00.0,38.8,31.9,13.5,0002.2,0026.75,0018.48,0017.52
2022-09-08 08:51:00,,0827.9,5.00,0.00,30.1,28.9,00.0,38.8,32.0,13.5,0002.0,0026.85,0018.46,0017.53
2022-09-08 08:52:00,,0827.9,5.01,0.00,30.1,29.0,00.0,38.9,32.0,13.6,0001.8,0026.75,0018.48,0017.56
2022-09-08 08:53:00,,0827.9,4.99,0.00,30.1,29.0,00.0,38.9,32.0,13.6,0001.6,0027.31,0018.51,0017.58
2022-09-08 08:54:00,,0827.9,5.01,0.00,30.2,29.1,00.0,38.9,32.0,13.6,0001.5,0027.48,0018.43,0017.51
2022-09-08 08:55:00,,0827.9,4.98,0.00,30.2,29.1,00.0,38.9,32.0,13.6,0001.7,0027.31,0018.38,0017.45
2022-09-08 08:56:00,,0827.9,5.02,0.00,30.2,29.2,00.0,38.9,32.1,13.6,0001.9,0026.72,0018.33,0017.39
2022-09-08 08:57:00,,0827.8,4.99,0.00,30.3,29.2,00.0,38.9,32.1,13.6,0002.1,0025.85,0018.22,0017.30
2022-09-08 08:58:00,,0827.9,5.01,0.00,30.3,29.0,00.0,39.0,32.1,13.6,0002.3,0025.65,0018.06,0017.18
2022-09-08 08:59:00,,0827.8,4.99,0.00,30.3,27.6,00.0,38.9,32.0,13.5,0002.4,0025.75,0018.02,0017.12
